Location: Aurora Center
(43.5271°N, 98.5894°W)
Time: 00:19:05
(UTC-05:00)

BlueWalker 3 - Pass Details

Date: 22 June 2024
Orbit: 480 x 492 km, 53.2° (Epoch: 15 July)

Event Time Altitude Azimuth Distance (km) Brightness Sun altitude
Rises 22:57:42 0° 269° (W) 2,537 6.1 -13.8°
Reaches altitude 10° 23:00:08 10° 283° (WNW) 1,658 5.3 -14.0°
Maximum altitude 23:03:19 26° 341° (NNW) 983 4.2 -14.4°
Drops below altitude 10° 23:06:30 10° 40° (NE) 1,658 4.7 -14.7°
Sets 23:08:56 0° 54° (NE) 2,539 5.5 -15.0°
